{"data":{"norad_id":66202,"intl_designator":"2025-243AB","name":"STARLINK-35534","alt_names":[],"object_type":"PAYLOAD","status":"ACTIVE","operator":null,"country":"US","launch_date":"2025-10-26","launch_site_code":"AFETR","launch_vehicle":null,"mission":null,"orbit_class":"UNKNOWN","rcs_meters":null,"size_class":null,"mass_kg":null,"dimensions":null,"purposes":["comms"],"wikipedia_slug":null,"has_3d_model":false,"image_url":null,"decayed_at":null,"tle_current":{"epoch":"2026-05-24T17:05:52.246464Z","epoch_age_seconds":93839,"freshness":"FRESH","line1":"1 66202U 25243AB  26144.71241026  .00035614  00000+0  12100-2 0  9996","line2":"2 66202  53.1586 252.0995 0001198 100.4203 259.6933 15.30168842 32298","mean_motion":15.30168842,"eccentricity":0.0001198,"inclination_deg":53.1586,"raan_deg":252.0995,"arg_perigee_deg":100.4203,"mean_anomaly_deg":259.6933,"bstar":0.00121,"rev_number":3229,"period_min":94.107261922668,"perigee_km":474.48706044633,"apogee_km":476.12914589305,"semimajor_km":6853.4451031697,"source":"CELESTRAK","updated_at":"2026-05-25T13:38:21.125308Z"}}}